FW0475 Weather Reports


Display with metric or nautical units.
time (UTC)temp
F
wind
direction
speed
MPH
gust
MPH
rain 1hr
in
rain 24hr
in
rain mn
in
humidity
%
barometer
mb
20260504182828 56 122 2.0 12.0 0.00 0.00 0.00 63 1000.0
20260504182323 56 144 3.0 12.0 0.00 0.00 0.00 63 1000.1
20260504181839 56 234 3.0 7.0 0.00 0.00 0.00 64 1000.1
20260504181349 55 163 3.0 9.0 0.00 0.00 0.00 64 1000.1
20260504180817 55 126 3.0 11.0 0.00 0.00 0.00 64 1000.1
20260504180335 56 146 4.0 11.0 0.00 0.00 0.00 63 1000.1
20260504175821 56 82 4.0 10.0 0.00 0.00 0.00 63 1000.2
20260504175337 56 86 2.0 8.0 0.00 0.00 0.00 62 1000.2
20260504174846 56 159 3.0 8.0 0.00 0.00 0.00 62 1000.4
20260504174329 56 153 4.0 11.0 0.00 0.00 0.00 63 1000.5
20260504173822 56 197 4.0 15.0 0.00 0.00 0.00 64 1000.6
20260504173317 55 69 4.0 15.0 0.00 0.00 0.00 64 1000.7
20260504172831 56 198 4.0 15.0 0.00 0.00 0.00 63 1000.7
20260504172343 55 268 2.0 9.0 0.00 0.00 0.00 63 1000.7
20260504171815 55 184 3.0 10.0 0.00 0.00 0.00 63 1000.7
20260504171333 55 136 3.0 12.0 0.00 0.00 0.00 64 1000.8
20260504170827 54 171 3.0 12.0 0.00 0.00 0.00 64 1000.8
20260504170322 54 170 3.0 10.0 0.00 0.00 0.00 66 1001.0
20260504160329 53 157 3.0 10.0 0.00 0.00 0.00 65 1001.4
20260504150818 52 83 2.0 10.0 0.00 0.00 0.00 67 1001.8
20260504150333 52 157 3.0 10.0 0.00 0.00 0.00 68 1001.9
20260504140833 51 154 2.0 7.0 0.00 0.00 0.00 69 1002.2
20260504140329 51 155 2.0 7.0 0.00 0.00 0.00 69 1002.4
20260504130328 48 232 2.0 7.0 0.00 0.00 0.00 72 1002.8
20260504120317 47 148 2.0 6.0 0.00 0.00 0.00 75 1003.0
20260504110314 47 291 1.0 2.0 0.00 0.00 0.00 74 1002.6
20260504100349 47 67 2.0 3.0 0.00 0.00 0.00 73 1002.7
20260504081831 48 67 2.0 4.0 0.00 0.00 0.00 73 1003.5
20260504081346 48 69 2.0 5.0 0.00 0.00 0.00 72 1003.5
20260504080835 48 49 2.0 6.0 0.00 0.00 0.00 72 1003.5
20260504080329 48 98 1.0 6.0 0.00 0.00 0.00 72 1003.5
20260504070319 47 104 2.0 6.0 0.00 0.00 0.00 74 1004.0
20260504050333 49 142 2.0 7.0 0.00 0.00 0.00 72 1004.8
20260504045821 49 132 2.0 6.0 0.00 0.00 0.00 71 1004.8
20260504045353 49 149 2.0 7.0 0.00 0.00 0.00 71 1004.9
20260504044833 49 130 2.0 7.0 0.00 0.00 0.00 71 1005.0
20260504044318 50 86 2.0 4.0 0.00 0.00 0.00 71 1004.9
20260504043834 50 136 2.0 8.0 0.00 0.00 0.00 71 1004.9
20260504043331 50 135 3.0 8.0 0.00 0.00 0.00 70 1004.9
20260504042825 50 107 2.0 8.0 0.00 0.00 0.00 70 1005.0
20260504042321 50 148 2.0 6.0 0.00 0.00 0.00 70 1004.9
20260504041837 51 115 2.0 6.0 0.00 0.00 0.00 70 1005.0
20260504041323 51 199 2.0 7.0 0.00 0.00 0.00 70 1005.1
20260504040855 51 134 3.0 7.0 0.00 0.00 0.00 70 1005.2
20260504040327 51 163 3.0 12.0 0.00 0.00 0.00 69 1005.2
20260504035834 51 107 3.0 12.0 0.00 0.00 0.00 69 1005.2
20260504035327 51 190 3.0 7.0 0.00 0.00 0.00 69 1005.2
20260504034818 51 162 2.0 8.0 0.00 0.00 0.00 70 1005.3
20260504034336 51 206 3.0 8.0 0.00 0.00 0.00 70 1005.4
20260504033830 51 153 2.0 5.0 0.00 0.00 0.00 69 1005.4
20260504033323 51 176 2.0 5.0 0.00 0.00 0.00 69 1005.5
20260504032837 51 161 2.0 7.0 0.00 0.00 0.00 70 1005.4
20260504032328 51 152 3.0 7.0 0.00 0.00 0.00 70 1005.4
20260504031844 51 144 2.0 7.0 0.00 0.00 0.00 70 1005.4
20260504031352 51 215 3.0 9.0 0.00 0.00 0.00 70 1005.4
20260504030826 51 153 4.0 9.0 0.00 0.00 0.00 70 1005.5
20260504030355 51 223 3.0 7.0 0.00 0.00 0.00 70 1005.3
20260504025824 51 153 3.0 6.0 0.00 0.00 0.00 70 1005.4
20260504025318 51 105 2.0 5.0 0.00 0.00 0.00 69 1005.5
20260504024831 51 99 2.0 8.0 0.00 0.00 0.00 69 1005.4
20260504024327 51 121 4.0 8.0 0.00 0.00 0.00 69 1005.5
20260504023820 51 5 2.0 6.0 0.00 0.00 0.00 69 1005.5
20260504023333 51 151 3.0 7.0 0.00 0.00 0.00 69 1005.5
20260504022824 51 192 3.0 7.0 0.00 0.00 0.00 69 1005.6
20260504022333 51 204 3.0 7.0 0.00 0.00 0.00 69 1005.8
20260504021825 51 181 2.0 7.0 0.00 0.00 0.00 70 1005.6
20260504021319 50 142 3.0 7.0 0.00 0.00 0.00 70 1005.6
20260504020834 50 173 1.0 5.0 0.00 0.00 0.00 70 1005.6
20260504020329 50 111 2.0 6.0 0.00 0.00 0.00 70 1005.6
20260504015822 50 139 2.0 7.0 0.00 0.00 0.00 70 1005.7
20260504015355 50 144 2.0 7.0 0.00 0.00 0.00 70 1005.7
20260504014819 50 132 3.0 5.0 0.00 0.00 0.00 70 1005.6
20260504014334 50 151 2.0 9.0 0.00 0.00 0.00 70 1005.6
20260504013847 50 128 2.0 9.0 0.00 0.00 0.00 70 1005.7
20260504013322 50 203 2.0 6.0 0.00 0.00 0.00 70 1005.6
20260504012837 50 188 2.0 10.0 0.00 0.00 0.00 70 1005.7
20260504012325 50 150 3.0 10.0 0.00 0.00 0.00 70 1005.9
20260504011819 50 138 2.0 5.0 0.00 0.00 0.00 69 1005.9
20260504011331 50 146 2.0 7.0 0.00 0.00 0.00 69 1005.8
20260504010819 51 184 2.0 7.0 0.00 0.00 0.00 69 1005.7
20260504010336 51 134 4.0 7.0 0.00 0.00 0.00 69 1005.8
20260504005825 51 146 2.0 5.0 0.00 0.00 0.00 69 1005.7
20260504005321 51 165 2.0 6.0 0.00 0.00 0.00 68 1005.7
20260504004858 51 155 2.0 6.0 0.00 0.00 0.00 68 1005.8
20260504004331 51 147 3.0 6.0 0.00 0.00 0.00 68 1005.8
20260504003829 51 82 2.0 10.0 0.00 0.00 0.00 67 1005.6
20260504003325 52 128 3.0 10.0 0.00 0.00 0.00 67 1005.6
20260504002828 52 84 2.0 7.0 0.00 0.00 0.00 67 1005.7
20260504002320 52 134 3.0 6.0 0.00 0.00 0.00 66 1005.9
20260504001850 52 166 2.0 12.0 0.00 0.00 0.00 65 1005.7
20260504001343 53 127 3.0 12.0 0.00 0.00 0.00 65 1005.8
20260504000829 53 124 2.0 8.0 0.00 0.00 0.00 64 1005.8
20260504000317 53 180 4.0 8.0 0.00 0.00 0.00 63 1005.8
20260503235833 53 138 3.0 9.0 0.00 0.00 0.00 63 1005.9
20260503235329 53 111 3.0 9.0 0.00 0.00 0.00 63 1005.9
20260503234845 53 143 3.0 9.0 0.00 0.00 0.00 63 1005.9
20260503234339 53 205 3.0 9.0 0.00 0.00 0.00 63 1005.9
20260503233825 53 175 3.0 8.0 0.00 0.00 0.00 64 1005.9
20260503233320 53 157 3.0 6.0 0.00 0.00 0.00 64 1006.0
20260503232833 53 171 3.0 11.0 0.00 0.00 0.00 64 1006.1
20260503232348 52 134 3.0 11.0 0.00 0.00 0.00 66 1006.3
20260503231841 52 130 3.0 8.0 0.00 0.00 0.00 66 1006.5
20260503231351 52 89 3.0 8.0 0.00 0.00 0.00 65 1006.5
20260503230857 52 163 3.0 8.0 0.00 0.00 0.00 65 1006.6
20260503230324 52 157 4.0 8.0 0.00 0.00 0.00 65 1006.7
20260503225816 52 336 3.0 9.0 0.00 0.00 0.00 66 1006.9
20260503225349 52 5 3.0 9.0 0.00 0.00 0.00 66 1006.8
20260503224843 52 182 3.0 9.0 0.00 0.00 0.00 66 1007.0
20260503224332 52 140 3.0 9.0 0.00 0.00 0.00 65 1007.0
20260503223825 52 63 4.0 10.0 0.00 0.00 0.00 66 1007.1
20260503223319 52 144 2.0 8.0 0.00 0.00 0.00 66 1007.1
20260503222834 52 138 3.0 11.0 0.00 0.00 0.00 65 1007.2
20260503222330 52 180 3.0 11.0 0.00 0.00 0.00 66 1007.3
20260503221822 52 191 4.0 11.0 0.00 0.00 0.00 65 1007.1
20260503221333 52 173 4.0 11.0 0.00 0.00 0.00 65 1007.1
20260503220817 52 205 3.0 10.0 0.00 0.00 0.00 65 1007.4
20260503220350 52 181 3.0 10.0 0.00 0.00 0.00 67 1007.6
20260503215824 51 150 4.0 9.0 0.00 0.00 0.00 67 1007.7
20260503215316 51 126 3.0 8.0 0.00 0.00 0.00 67 1007.9
20260503214853 51 154 4.0 10.0 0.00 0.00 0.00 67 1007.9
20260503214323 51 191 6.0 10.0 0.00 0.00 0.00 66 1007.8
20260503213836 51 140 4.0 9.0 0.00 0.00 0.00 67 1007.9
20260503213328 51 155 4.0 9.0 0.00 0.00 0.00 67 1007.9
20260503212824 51 196 4.0 8.0 0.00 0.00 0.00 68 1008.0
20260503212338 50 164 4.0 7.0 0.00 0.00 0.00 69 1008.3
20260503211843 49 137 4.0 12.0 0.00 0.00 0.00 70 1008.3
20260503211339 49 190 3.0 12.0 0.00 0.00 0.00 70 1008.3
20260503210847 49 163 3.0 8.0 0.00 0.00 0.00 70 1008.5
20260503210340 49 121 4.0 9.0 0.00 0.00 0.00 69 1008.5
20260503205837 49 169 3.0 11.0 0.00 0.00 0.00 70 1008.5
20260503205325 49 139 4.0 11.0 0.00 0.00 0.00 69 1008.7
20260503204839 49 163 4.0 8.0 0.00 0.00 0.00 69 1008.7
20260503204326 49 148 3.0 8.0 0.00 0.00 0.00 69 1008.9
20260503203819 49 193 3.0 11.0 0.00 0.00 0.00 69 1008.9
20260503203335 49 186 4.0 11.0 0.00 0.00 0.00 70 1009.0
20260503202821 49 195 4.0 13.0 0.00 0.00 0.00 70 1009.2
20260503202336 48 155 6.0 13.0 0.00 0.00 0.00 70 1009.3
20260503201822 48 169 5.0 14.0 0.00 0.00 0.00 70 1009.4
20260503201339 48 195 5.0 14.0 0.00 0.00 0.00 70 1009.3
20260503200844 49 211 5.0 11.0 0.00 0.00 0.00 69 1009.3
20260503200328 48 194 3.0 10.0 0.00 0.00 0.00 70 1009.4
20260503195824 48 207 5.0 13.0 0.00 0.00 0.00 71 1009.6
20260503195356 48 224 5.0 13.0 0.00 0.00 0.00 71 1009.5
20260503194850 47 156 5.0 12.0 0.00 0.00 0.00 71 1009.5
20260503194323 47 283 6.0 12.0 0.00 0.00 0.00 71 1009.6
20260503193830 47 136 6.0 12.0 0.00 0.00 0.00 71 1009.6
20260503193316 47 213 6.0 16.0 0.00 0.00 0.00 71 1009.5
20260503192852 47 153 5.0 16.0 0.00 0.00 0.00 71 1009.5
20260503192320 47 236 4.0 16.0 0.00 0.00 0.00 71 1009.5
20260503191831 47 262 6.0 16.0 0.00 0.00 0.00 71 1009.4
20260503191328 47 257 8.0 18.0 0.00 0.00 0.00 70 1009.5
20260503190845 47 248 6.0 18.0 0.00 0.00 0.00 71 1009.4
20260503190328 47 208 8.0 16.0 0.00 0.00 0.00 70 1009.6
20260503185816 47 213 6.0 13.0 0.00 0.00 0.00 71 1009.7
20260503185334 47 241 6.0 18.0 0.00 0.00 0.00 71 1009.7
20260503184827 47 272 9.0 18.0 0.00 0.00 0.00 71 1009.7
20260503184317 47 168 7.0 17.0 0.00 0.00 0.00 71 1009.7
20260503183832 47 200 6.0 13.0 0.00 0.00 0.00 70 1009.9
20260503183325 47 159 6.0 18.0 0.00 0.00 0.00 70 1009.9